Location: Chervonnoye
(48.6000°N, 34.4000°E)
Time: 05:10:06
(UTC+00:00)

ARGOS - Pass Details

Date: 23 November 2020
Orbit: 820 x 835 km, 98.4° (Epoch: 18 January)

Event Time Altitude Azimuth Distance (km) Brightness Sun altitude
Exits shadow 17:15:46 44° 316° (NW) 1,145 4.1 -32.8°
Drops below altitude 10° 17:19:36 10° 340° (NNW) 2,449 5.9 -33.4°
Sets 17:22:00 0° 344° (NNW) 3,385 6.6 -33.8°
